This demonstration page uses our WeatherBlox Daily Observations layout. Learn more.

Left ArrowRight Arrow

Hourly Observations for January 17, 2016

Temp ( °F °C ) Dew Point ( °F °C ) Humidity (%) Winds ( mph kmh ) Pressure ( in mb ) Visibility ( mi km ) Precip ( " mm )
12:37 am 00:37 Cloudy with Light Snow 11 -11.7 6 -14.4 81 81 NNE 14 22 30.30 1026 3 4 0.00 0.03
12:53 am 00:53 Cloudy with Light Snow 11 -11.7 5 -15 77 77 N 14 22 30.21 1023 3 4 0.00 0.03
1:16 am 01:16 Cloudy with Light Snow 10 -12.2 5 -15 80 80 NE 12 19 30.30 1026 2 3 0.00 0.03
1:31 am 01:31 Cloudy with Light Snow 10 -12.2 5 -15 80 80 NNE 12 19 30.30 1026 3 4 0.00 0.03
1:49 am 01:49 Cloudy with Light Snow 9 -13 3 -16 78 78 NNE 14 22 30.30 1026 3 5 0.00 0.03
1:53 am 01:53 Cloudy with Light Snow 9 -12.8 4 -15.6 80 80 NNE 16 26 30.22 1023 3 4 0.00 0.03
1:57 am 01:57 Cloudy with Light Snow 9 -12.8 2 -16.7 73 73 N 15 24 30.30 1026 3 5 0.00 0.03
2:28 am 02:28 Cloudy with Light Snow 9 -13 1 -17 72 72 N 13 20 30.33 1027 5 8 0.00 0.00
2:53 am 02:53 Cloudy 8 -13.3 1 -17.2 73 73 N 16 26 30.24 1024 10 16 0.00 0.03
3:38 am 03:38 Cloudy 9 -13 0 -18 66 66 N 20 31 30.33 1027 10 16 0.00 0.00
3:53 am 03:53 Cloudy 8 -13.3 0 -17.8 69 69 N 16 26 30.26 1025 10 16 0.00 0.00
4:14 am 04:14 Cloudy 7 -14 0 -18 72 72 NNE 14 22 30.33 1027 10 16 0.00 0.00
4:53 am 04:53 Cloudy 5 -15 -1 -18.3 76 76 NNE 13 20 30.29 1026 10 16 0.00 0.03
5:53 am 05:53 Partly Cloudy 3 -16.1 -3 -19.4 76 76 N 10 17 30.33 1027 10 16 0.00 0.00
6:53 am 06:53 Clear 1 -17.2 -6 -21.1 72 72 N 12 19 30.36 1028 10 16 0.00 0.00
7:53 am 07:53 Clear 0 -17.8 -9 -22.8 65 65 N 12 19 30.38 1029 10 16 0.00 0.00
8:53 am 08:53 Sunny 1 -17.2 -7 -21.7 68 68 NNW 6 9 30.40 1029 10 16 0.00 0.00
9:53 am 09:53 Mostly Sunny 3 -16.1 -6 -21.1 66 66 NNW 12 19 30.41 1030 10 16 0.00 0.00
10:53 am 10:53 Mostly Sunny 5 -15 -4 -20 66 66 NNW 10 17 30.42 1030 10 16 0.00 0.00
11:53 am 11:53 Sunny 8 -13.3 -2 -18.9 63 63 NNW 14 22 30.42 1030 10 16 0.00 0.00
12:53 pm 12:53 Sunny 11 -11.7 0 -17.8 61 61 NNW 13 20 30.38 1029 10 16 0.00 0.00
1:53 pm 13:53 Sunny 12 -11.1 0 -17.8 58 58 N 12 19 30.36 1028 10 16 0.00 0.00
2:53 pm 14:53 Sunny 14 -10 1 -17.2 56 56 NW 10 17 30.35 1028 10 16 0.00 0.00
3:53 pm 15:53 Sunny 14 -10 1 -17.2 56 56 N 8 13 30.36 1028 10 16 0.00 0.00
4:53 pm 16:53 Sunny 13 -10.6 0 -17.8 56 56 NNW 6 9 30.37 1029 10 16 0.00 0.00
5:53 pm 17:53 Clear 11 -11.7 1 -17.2 64 64 N 3 6 30.40 1029 10 16 0.00 0.00
6:53 pm 18:53 Clear 11 -11.7 1 -17.2 64 64 Calm 30.41 1030 10 16 0.00 0.00
7:53 pm 19:53 Clear 7 -13.9 0 -17.8 73 73 Calm 30.43 1031 10 16 0.00 0.00
8:53 pm 20:53 Clear 6 -14.4 0 -17.8 76 76 Calm 30.43 1031 10 16 0.00 0.00
9:53 pm 21:53 Clear 6 -14.4 0 -17.8 76 76 Calm 30.43 1031 10 16 0.00 0.00
10:53 pm 22:53 Clear 7 -13.9 0 -17.8 73 73 SW 5 7 30.42 1030 10 16 0.00 0.00
11:53 pm 23:53 Clear 6 -14.4 -1 -18.3 73 73 SSW 3 6 30.44 1031 10 16 0.00 0.00

Powered by AerisWeather